Change the Weather History Date:

Saturday, January 25, 2014

  Actual Average Record
Temperature  
Mean Temperature 76 °F -  
Max Temperature 82 °F 84 °F - ()
Min Temperature 71 °F 70 °F - ()
Cooling Degree Days 12    
Growing Degree Days 26 (Base 50)    
Moisture  
Dew Point 69 °F    
Average Humidity 74    
Maximum Humidity 94    
Minimum Humidity 57    
Precipitation  
Precipitation 0.00 in 0.20 in - ()
Sea Level Pressure  
Sea Level Pressure 29.83 in    
Wind  
Wind Speed 8 mph ()    
Max Wind Speed 17 mph    
Max Gust Speed 31 mph    
Visibility 6.9 miles    
Events Rain    
T = Trace of Precipitation, MM = Missing Value Source: Averaged Metar Reports

Daily Weather History Graph

Daily Weather History Graph

Search for Another Location

Airport or City:

Trip Planner

Search our weather history database for the weather conditions in past years. The results will help you decide how hot, cold, wet, or windy it might be!

Date:

Astronomy

Jan. 25, 2014 Rise Set
Actual Time 5:14 AM AEST 6:44 PM AEST
Civil Twilight 4:48 AM AEST 7:10 PM AEST
Nautical Twilight 4:18 AM AEST 7:40 PM AEST
Astronomical Twilight 3:46 AM AEST 8:12 PM AEST
Moon No Moon Rise 12:59 PM AEST (1/25)
Length of Visible Light 14h 21m
Length of Day
13h 30m
Last Quarter, 41% of the Moon is Illuminated
Jan 25
Last Quarter
Jan 31
New
Feb 7
First Quarter
Feb 15
Full
Feb 23
Last Quarter

Hourly Weather History & Observations

Time (AEST) Temp. Heat Index Dew Point Humidity Pressure Visibility Wind Dir Wind Speed Gust Speed Precip Events Conditions
12:00 AM 77 °F - 70 °F 73% 29.83 in 12 mi North 12.7 mph - -   Partly Cloudy
12:00 AM 77.0 °F - 69.8 °F 78% 29.83 in 6.2 mi North 12.7 mph - N/A   Mostly Cloudy
12:30 AM 75.2 °F - 71.6 °F 89% 29.80 in 6.2 mi NW 6.9 mph - N/A   Mostly Cloudy
1:00 AM 74 °F - 71 °F 87% 29.80 in - NW 8.1 mph - -  
1:00 AM 75.2 °F - 71.6 °F 89% 29.80 in 6.2 mi NW 8.1 mph - N/A   Mostly Cloudy
1:30 AM 75.2 °F - 71.6 °F 89% 29.77 in 6.2 mi WNW 6.9 mph - N/A   Mostly Cloudy
2:00 AM 75.2 °F - 71.6 °F 89% 29.77 in 6.2 mi NW 5.8 mph - N/A   Mostly Cloudy
2:30 AM 73.4 °F - 69.8 °F 88% 29.77 in 6.2 mi West 4.6 mph - N/A   Mostly Cloudy
3:00 AM 74 °F - 71 °F 87% 29.77 in 12 mi WNW 3.5 mph - -   Partly Cloudy
3:00 AM 73.4 °F - 71.6 °F 94% 29.74 in 6.2 mi WNW 3.5 mph - N/A   Mostly Cloudy
3:30 AM 73.4 °F - 71.6 °F 94% 29.74 in 6.2 mi West 3.5 mph - N/A   Mostly Cloudy
4:00 AM 74 °F - 71 °F 88% 29.77 in - WSW 4.6 mph - -  
4:00 AM 73.4 °F - 71.6 °F 94% 29.77 in 6.2 mi WSW 4.6 mph - N/A   Mostly Cloudy
4:30 AM 73.4 °F - 71.6 °F 94% 29.77 in 6.2 mi West 4.6 mph - N/A   Mostly Cloudy
5:00 AM 73.4 °F - 71.6 °F 94% 29.74 in 6.2 mi West 3.5 mph - N/A   Mostly Cloudy
5:30 AM 73.4 °F - 71.6 °F 94% 29.77 in 6.2 mi Calm Calm - N/A   Mostly Cloudy
6:00 AM 74 °F - 72 °F 91% 29.79 in 16 mi Calm Calm - -   Partly Cloudy
6:00 AM 75.2 °F - 71.6 °F 89% 29.77 in 6.2 mi Calm Calm - N/A   Mostly Cloudy
6:30 AM 75.2 °F - 69.8 °F 83% 29.77 in 6.2 mi Calm Calm - N/A   Mostly Cloudy
7:00 AM 76 °F - 70 °F 75% 29.80 in - Calm Calm - -  
7:00 AM 77.0 °F - 69.8 °F 78% 29.77 in 6.2 mi Calm Calm - N/A   Mostly Cloudy
7:30 AM 77.0 °F - 69.8 °F 78% 29.80 in 6.2 mi SW 3.5 mph - N/A   Mostly Cloudy
8:00 AM 78.8 °F - 68.0 °F 69% 29.80 in 6.2 mi West 3.5 mph - N/A   Mostly Cloudy
8:30 AM 78.8 °F - 68.0 °F 69% 29.80 in 6.2 mi West 5.8 mph - N/A   Mostly Cloudy
9:00 AM 81 °F - 68 °F 57% 29.82 in 12 mi WSW 6.9 mph - -   Partly Cloudy
9:00 AM 80.6 °F 83.2 °F 68.0 °F 65% 29.80 in 6.2 mi WSW 6.9 mph - N/A   Mostly Cloudy
9:30 AM 82.4 °F 85.4 °F 68.0 °F 62% 29.80 in 6.2 mi WNW 8.1 mph - N/A Rain Light Rain
10:00 AM 81 °F - 69 °F 59% 29.81 in - North 4.6 mph - -  
10:00 AM 80.6 °F 83.9 °F 69.8 °F 70% 29.80 in 5.6 mi North 4.6 mph - N/A Rain Light Rain
10:30 AM 80.6 °F 83.9 °F 69.8 °F 70% 29.80 in 5.6 mi SW 9.2 mph - N/A Rain Light Rain
11:00 AM 78.8 °F - 71.6 °F 78% 29.80 in 6.2 mi SSW 10.4 mph - N/A Rain Light Rain
11:30 AM 78.8 °F - 69.8 °F 74% 29.80 in 6.2 mi SSW 10.4 mph - N/A Rain Light Rain
12:00 PM 78 °F - 70 °F 71% 29.82 in 9 mi SSW 9.2 mph - - Rain Light Rain
12:00 PM 78.8 °F - 69.8 °F 74% 29.80 in 6.2 mi SSW 9.2 mph - N/A Rain Light Rain
12:30 PM 78.8 °F - 71.6 °F 78% 29.80 in 6.2 mi SW 8.1 mph - N/A   Mostly Cloudy
1:00 PM 80 °F - 71 °F 66% 29.81 in - SW 9.2 mph - -  
1:00 PM 80.6 °F 84.6 °F 71.6 °F 74% 29.80 in 6.2 mi SW 9.2 mph - N/A   Mostly Cloudy
1:30 PM 80.6 °F 84.6 °F 71.6 °F 74% 29.80 in 6.2 mi SSW 8.1 mph - N/A   Mostly Cloudy
2:00 PM 82.4 °F 87.2 °F 71.6 °F 70% 29.80 in 6.2 mi South 8.1 mph - N/A   Mostly Cloudy
2:30 PM 80.6 °F 83.9 °F 69.8 °F 70% 29.80 in 6.2 mi ESE 6.9 mph - N/A   Mostly Cloudy
3:00 PM 81 °F - 72 °F 67% 29.81 in 9 mi ESE 10.4 mph - -   Mostly Cloudy
3:00 PM 80.6 °F 84.6 °F 71.6 °F 74% 29.80 in 6.2 mi ESE 10.4 mph - N/A   Partly Cloudy
3:30 PM 78.8 °F - 69.8 °F 74% 29.80 in 6.2 mi SE 12.7 mph - N/A   Mostly Cloudy
4:00 PM 79 °F - 68 °F 62% 29.82 in - SE 12.7 mph - -  
4:00 PM 78.8 °F - 68.0 °F 69% 29.80 in 6.2 mi SE 12.7 mph 24.2 mph N/A   Mostly Cloudy
4:30 PM 78.8 °F - 68.0 °F 69% 29.83 in 6.2 mi ESE 15.0 mph - N/A   Mostly Cloudy
5:00 PM 78.8 °F - 68.0 °F 69% 29.83 in 6.2 mi ESE 16.1 mph - N/A   Mostly Cloudy
5:30 PM 78.8 °F - 66.2 °F 65% 29.83 in 6.2 mi SE 17.3 mph 31.1 mph N/A   Mostly Cloudy
6:00 PM 78 °F - 67 °F 60% 29.87 in 9 mi SE 17.3 mph - -   Haze
6:00 PM 78.8 °F - 66.2 °F 65% 29.86 in 6.2 mi SE 17.3 mph 29.9 mph N/A   Mostly Cloudy
6:30 PM 77.0 °F - 66.2 °F 69% 29.86 in 6.2 mi SE 16.1 mph - N/A   Mostly Cloudy
7:00 PM 77 °F - 67 °F 63% 29.90 in - SE 15.0 mph - -  
7:00 PM 77.0 °F - 66.2 °F 69% 29.89 in 6.2 mi SE 15.0 mph 26.5 mph N/A   Mostly Cloudy
7:30 PM 77.0 °F - 66.2 °F 69% 29.89 in 6.2 mi SSE 11.5 mph 23.0 mph N/A   Mostly Cloudy
8:00 PM 77.0 °F - 66.2 °F 69% 29.92 in 6.2 mi SSE 12.7 mph - N/A   Mostly Cloudy
8:30 PM 77.0 °F - 64.4 °F 65% 29.92 in 6.2 mi SE 15.0 mph - N/A   Mostly Cloudy
9:00 PM 76 °F - 64 °F 59% 29.96 in 9 mi SSE 13.8 mph - -   Haze
9:00 PM 77.0 °F - 64.4 °F 65% 29.95 in 6.2 mi SSE 13.8 mph - N/A   Mostly Cloudy
9:30 PM 77.0 °F - 64.4 °F 65% 29.95 in 6.2 mi SE 13.8 mph - N/A   Mostly Cloudy
9:40 PM 77.0 °F - 62.6 °F 61% 29.95 in 6.2 mi SE 17.3 mph 29.9 mph N/A   Mostly Cloudy
10:00 PM 76 °F - 64 °F 57% 29.98 in - SE 15.0 mph - -  
10:00 PM 77.0 °F - 64.4 °F 65% 29.98 in 6.2 mi SE 15.0 mph 26.5 mph N/A   Mostly Cloudy
10:30 PM 77.0 °F - 64.4 °F 65% 29.98 in 6.2 mi SE 11.5 mph - N/A   Mostly Cloudy
11:00 PM 77.0 °F - 64.4 °F 65% 29.98 in 6.2 mi SE 12.7 mph - N/A   Mostly Cloudy
11:30 PM 75.2 °F - 64.4 °F 69% 29.98 in 6.2 mi SE 12.7 mph - N/A Rain Light Rain Showers